LNNPO ENKJ-ENGM

Flight info

Callsign LNNPO
Flight time N/A
Altitude 4000
Route ENKJ/ENSI
Aircraft C172/L-SFG/C

Departure

Time 2026-05-06 17:04
Airport Lillestrøm Airfield, Kjeller (ENKJ)

Arrival

Time N/A
Airport Oslo-Gardermoen International Airport (ENGM)
Time Latitude Longitude Altitude Speed Heading
2026-05-06 17:04 59.80706 10.70754 2893 ft 117 kts
2026-05-06 17:04 59.81508 10.70949 2900 ft 117 kts
2026-05-06 17:05 59.82309 10.71190 2906 ft 116 kts
2026-05-06 17:05 59.83110 10.71453 2885 ft 117 kts
2026-05-06 17:05 59.83930 10.71758 2848 ft 120 kts
2026-05-06 17:05 59.84744 10.72087 2799 ft 122 kts
2026-05-06 17:06 59.85569 10.72474 2792 ft 120 kts 11°
2026-05-06 17:06 59.86371 10.72899 2771 ft 121 kts 12°
2026-05-06 17:06 59.87178 10.73379 2749 ft 121 kts 13°
2026-05-06 17:06 59.87983 10.73889 2736 ft 121 kts 14°
2026-05-06 17:07 59.88754 10.74504 2739 ft 120 kts 20°
2026-05-06 17:07 59.89528 10.75221 2727 ft 120 kts 22°
2026-05-06 17:07 59.90258 10.76005 2714 ft 122 kts 26°
2026-05-06 17:07 59.91004 10.76873 2694 ft 122 kts 28°
2026-05-06 17:08 59.91715 10.77820 2672 ft 124 kts 32°
2026-05-06 17:08 59.92391 10.78844 2686 ft 122 kts 36°
2026-05-06 17:08 59.93033 10.79921 2702 ft 120 kts 39°
2026-05-06 17:08 59.93661 10.81056 2696 ft 121 kts 40°
2026-05-06 17:09 59.94294 10.82179 2715 ft 120 kts 39°
2026-05-06 17:09 59.94907 10.83298 2720 ft 120 kts 39°
2026-05-06 17:09 59.95523 10.84429 2695 ft 122 kts 40°
2026-05-06 17:09 59.96167 10.85572 2644 ft 125 kts 38°
2026-05-06 17:10 59.96821 10.86721 2557 ft 126 kts 38°
2026-05-06 17:10 59.97507 10.87814 2505 ft 125 kts 34°
2026-05-06 17:10 59.98209 10.88814 2461 ft 125 kts 32°
2026-05-06 17:10 59.98946 10.89779 2415 ft 125 kts 30°
2026-05-06 17:11 59.99679 10.90708 2383 ft 123 kts 29°
2026-05-06 17:11 60.00420 10.91543 2345 ft 122 kts 24°
2026-05-06 17:11 60.01168 10.92307 2334 ft 120 kts 23°
2026-05-06 17:11 60.01918 10.93009 2319 ft 119 kts 21°
2026-05-06 17:12 60.02670 10.93706 2330 ft 119 kts 21°
2026-05-06 17:12 60.03428 10.94405 2328 ft 119 kts 22°
2026-05-06 17:12 60.04180 10.95077 2326 ft 118 kts 22°
2026-05-06 17:12 60.04925 10.95764 2329 ft 118 kts 21°
2026-05-06 17:13 60.05674 10.96455 2311 ft 118 kts 21°
2026-05-06 17:13 60.06420 10.97130 2294 ft 117 kts 21°
2026-05-06 17:13 60.07171 10.97789 2286 ft 117 kts 18°
2026-05-06 17:13 60.07925 10.98386 2281 ft 117 kts 18°
2026-05-06 17:14 60.08682 10.98963 2291 ft 116 kts 16°
2026-05-06 17:14 60.09443 10.99543 2261 ft 119 kts 17°
2026-05-06 17:14 60.10205 11.00137 2258 ft 117 kts 17°
2026-05-06 17:14 60.10978 11.00677 2237 ft 118 kts 14°
2026-05-06 17:15 60.11769 11.01169 2229 ft 119 kts 13°
2026-05-06 17:15 60.12572 11.01644 2176 ft 121 kts 12°
2026-05-06 17:15 60.13374 11.02097 2160 ft 120 kts 13°
2026-05-06 17:15 60.14191 11.02562 2098 ft 123 kts 12°
2026-05-06 17:16 60.14999 11.03011 2099 ft 119 kts 11°
2026-05-06 17:16 60.15803 11.03429 2077 ft 120 kts 11°
2026-05-06 17:16 60.16623 11.03823 2023 ft 121 kts
2026-05-06 17:16 60.17440 11.04188 2019 ft 118 kts
2026-05-06 17:17 60.18236 11.04585 1993 ft 119 kts 11°
2026-05-06 17:17 60.19049 11.04967 1976 ft 117 kts
2026-05-06 17:17 60.19846 11.05330 1934 ft 119 kts
2026-05-06 17:17 60.20635 11.05769 1925 ft 116 kts 13°
2026-05-06 17:18 60.21395 11.06257 1876 ft 115 kts 13°
2026-05-06 17:18 60.22168 11.06731 1770 ft 116 kts 12°
2026-05-06 17:18 60.22906 11.07216 1633 ft 103 kts 17°
2026-05-06 17:18 60.23508 11.07682 1500 ft 85 kts 19°
2026-05-06 17:19 60.24047 11.08197 1417 ft 85 kts 40°
2026-05-06 17:19 60.24197 11.09248 1370 ft 80 kts 111°
2026-05-06 17:19 60.23803 11.09927 1290 ft 76 kts 163°
2026-05-06 17:19 60.23296 11.10095 1171 ft 76 kts 186°
2026-05-06 17:20 60.22795 11.09835 1052 ft 73 kts 198°
2026-05-06 17:20 60.22308 11.09554 934 ft 72 kts 199°
2026-05-06 17:20 60.21828 11.09278 780 ft 70 kts 198°
2026-05-06 17:20 60.21370 11.09014 691 ft 66 kts 198°
2026-05-06 17:21 60.20955 11.08775 682 ft 68 kts 193°
2026-05-06 17:21 60.20457 11.08498 816 ft 75 kts 197°
2026-05-06 17:21 60.19939 11.08205 961 ft 82 kts 197°
2026-05-06 17:21 60.19371 11.07886 1113 ft 87 kts 201°
2026-05-06 17:22 60.18768 11.07537 1231 ft 91 kts 196°
2026-05-06 17:22 60.18164 11.07138 1281 ft 93 kts 220°
2026-05-06 17:22 60.17898 11.06043 1355 ft 89 kts 269°
2026-05-06 17:22 60.17955 11.04800 1399 ft 90 kts 275°
2026-05-06 17:23 60.18082 11.03547 1419 ft 93 kts 295°
2026-05-06 17:23 60.18659 11.02939 1410 ft 102 kts 358°
2026-05-06 17:23 60.19356 11.03183 1413 ft 101 kts
2026-05-06 17:23 60.20033 11.03545 1457 ft 98 kts 11°
2026-05-06 17:24 60.20702 11.03938 1485 ft 102 kts 11°
2026-05-06 17:24 60.21408 11.04337 1508 ft 107 kts 11°
2026-05-06 17:24 60.22117 11.04728 1507 ft 107 kts 10°